Overview Statistics Trail Chart Weather Telemetry Raw packets
 

This is the latest recevied weather packets stored in our database for station/object EPGD. If no packets are shown the sender has not sent any weather packets the latest 10 day(s).

<< 11 12 13 14 15 16 17 >>
Time Temp. Humidity Pressure Rain* Wind** Luminosity Snow
1788019504 22.78° C 56% 1011 hPa - - - -
1788017703 21.67° C 60% 1011 hPa - - - -
1788015909 21.67° C 60% 1011 hPa - - - -
1788014104 21.67° C 64% 1011 hPa - - - -
1788012304 21.67° C 64% 1011 hPa - - - -
1788010503 20.56° C 73% 1010 hPa - - - -
1788008704 20.56° C 77% 1010 hPa - - - -
1788006904 20° C 72% 1010 hPa - - - -
1788005104 20° C 72% 1010 hPa - - - -
1788003304 20.56° C 73% 1010 hPa - - - -
1788001504 20.56° C 68% 1010 hPa - - - -
1787999704 20° C 77% 1010 hPa - - - -
1787997904 20° C 82% 1010 hPa - - - -
1787996104 18.89° C 88% 1009 hPa - - - -
1787994307 17.78° C 93% 1009 hPa - - - -
1787992504 16.67° C 93% 1009 hPa - - - -
1787990704 15.56° C 100% 1009 hPa - - - -
1787988904 15° C 100% 1009 hPa - - - -
1787987104 15° C 100% 1009 hPa - - - -
1787985304 15° C 100% 1009 hPa - - - -
1787983503 15° C 93% 1009 hPa - - - -
1787981703 13.89° C 100% 1009 hPa - - - -
1787979904 13.89° C 100% 1008 hPa - - - -
1787978104 15° C 87% 1009 hPa - - - -
1787976304 15.56° C 77% 1009 hPa - - - -

* Rain since midnight (hover to see other rain measurements)
** Current wind speed in m/s (hover to see current wind gust speed)